Flag for Germany Weather past 2 weeks in Idar-Oberstein, Rhineland-Palatinate, Germany

Now
34 °F

Partly sunny.


Feels Like: 26 °F
Forecast: 32 / 39 °F
Wind: 10 mph from West

Location: Hahn

Current Time: Jan 27, 2015 at 2:06:21 PM

Latest Report: Jan 27, 2015 at 1:20 PM


Visibility: 5 mi

Pressure: 30.15 "Hg

Humidity: 100%

Dew point: 34 °F

Location of Idar-ObersteinLocation

Historic Weather in Idar-Oberstein — Graph

°F

Idar-Oberstein temperature yesterday

Maximum temperature yesterday: 34 °F (at 5:50 PM)
Minimum temperature yesterday: 30 °F (at 12:20 AM)
Average temperature yesterday: 32 °F

Past Weeks' High & Low Weather Summary

 TemperatureHumidityPressure
High50 °F (Jan 13, 1:50 PM)100% (Jan 13, 7:58 PM)30.39 "Hg (Jan 13, 7:58 PM)
Low23 °F (Jan 20, 9:50 PM)54% (Jan 13, 1:50 PM)29.56 "Hg (Jan 15, 1:50 PM)
Average33 °F93%29.94 "Hg
* Reported Jan 12 12:20 PM — Jan 27 12:50 PM, Idar-Oberstein, Weather by CustomWeather, © 2014

Note: Actual official high and low records may vary slightly from our data, if they occured in-between our weather recording intervals... More about our weather records

Advertising

Idar-Oberstein weather history for previous 24 hours

 ConditionsComfort  
Time TempWeatherWind HumidityBarometerVisibility
12:50 PM
Jan 27
34 °FPartly sunny.13 mph100%30.15 "Hg5 mi
12:20 PM32 °FLight snow. Partly sunny.12 mph100%30.15 "Hg4 mi
11:50 AM32 °FPartly sunny.12 mph100%30.15 "Hg4 mi
11:20 AM32 °FBroken clouds.12 mph100%30.18 "Hg4 mi
10:50 AM32 °FPartly sunny.13 mph100%30.15 "Hg4 mi
10:20 AM32 °FPartly sunny.10 mph100%30.15 "Hg4 mi
9:50 AM32 °FIce fog.12 mph100%30.15 "Hg3 mi
9:20 AM32 °FIce fog.12 mph100%30.15 "Hg3 mi
8:50 AM32 °FIce fog.12 mph100%30.15 "Hg2 mi
8:20 AM32 °FIce fog.8 mph100%30.15 "Hg2 mi
7:50 AM32 °FLight snow. Ice fog.9 mph100%30.15 "Hg4 mi
7:20 AM32 °FLight snow. Ice fog.10 mph100%30.15 "Hg2 mi
6:50 AM32 °FLight snow. Ice fog.9 mph100%30.15 "Hg2 mi
6:20 AM32 °FLight snow. Ice fog.12 mph100%30.12 "Hg2 mi
5:50 AM32 °FLight snow. Ice fog.9 mph100%30.12 "Hg1 mi
5:20 AM32 °FLight snow. Ice fog.10 mph100%30.12 "Hg1 mi
4:50 AM32 °FLight snow. Passing clouds.8 mph100%30.12 "Hg1 mi
4:20 AM32 °FLight snow. Partly cloudy.8 mph100%30.12 "Hg1 mi
3:50 AM32 °FPartly cloudy.9 mph100%30.12 "Hg4 mi
3:20 AM32 °FLight snow. Ice fog.9 mph100%30.09 "Hg2 mi
2:50 AM32 °FIce fog.9 mph100%30.09 "Hg1 mi
2:20 AM32 °FLight snow. Partly cloudy.9 mph100%30.09 "Hg1 mi
1:50 AM32 °FLight rain. Ice fog.9 mph100%30.09 "Hg1 mi
1:20 AM32 °FIce fog.9 mph100%30.09 "Hg1 mi
12:50 AM34 °FLight snow. Fog.10 mph100%30.09 "Hg2 mi
12:20 AM34 °FPartly cloudy.9 mph100%30.09 "Hg4 mi
11:50 PM
Jan 26
32 °FIce fog.10 mph100%30.09 "Hg1 mi
11:20 PM34 °FFog.13 mph100%30.07 "Hg1 mi
11:01 PM34 °FPassing clouds.12 mph100%30.07 "Hg1 mi
10:20 PM34 °FDrizzle. Fog.9 mph100%30.07 "Hg1 mi
9:59 PM34 °FPartly cloudy.9 mph100%30.07 "Hg5 mi
9:20 PM34 °FChilly.10 mph100%30.07 "Hg1 mi
8:50 PM34 °FFog.10 mph100%30.07 "Hg1 mi
8:20 PM34 °FDrizzle. Fog.12 mph100%30.07 "Hg0 mi
7:56 PM34 °FDrizzle. Fog.12 mph100%30.07 "Hg0 mi
7:20 PM34 °FDrizzle. Fog.15 mph100%30.04 "Hg0 mi
6:50 PM34 °FFog.14 mph100%30.04 "Hg0 mi
6:20 PM34 °FFog.14 mph100%30.04 "Hg1 mi
5:59 PM34 °FDrizzle. Fog.14 mph100%30.04 "Hg1 mi
5:50 PM34 °FDrizzle. Fog.14 mph100%30.04 "Hg1 mi
5:20 PM32 °FDrizzle. Low clouds.15 mph100%30.04 "Hg1 mi
5:02 PM32 °FChilly.15 mph100%30.04 "Hg1 mi
4:54 PM32 °FLight rain. Low clouds.13 mph100%30.04 "Hg1 mi
4:20 PM32 °FChilly.14 mph100%30.04 "Hg2 mi
3:20 PM32 °FLight rain. Ice fog.10 mph100%30.07 "Hg2 mi
2:50 PM32 °FLight rain. Ice fog.10 mph100%30.07 "Hg2 mi
2:20 PM32 °FLight rain. Partly sunny.9 mph100%30.07 "Hg4 mi
Weather by CustomWeather, © 2014

See weather overviewHow to use our weather pages